Home   Weather   Rustenburg   Past weeks

Flag for South Africa Past Weather in Rustenburg, South Africa — Yesterday and Last 2 Weeks

Now
64 °F

Mild.


Feels Like: 64 °F
Forecast: 68 / 91 °F
Wind: 3 mph from West

Location: Lanseria Civ / Mil

Current Time: Jan 20, 2017 at 3:53:05 am

Latest Report: Jan 20, 2017 at 2:00 am


Visibility: N/A

Pressure: 30.04 "Hg (26.20 "Hg at 1166m altitude)

Humidity: 64%

Dew Point: 52 °F

Location of RustenburgLocation

Past Weather in Rustenburg — Graph

°F

Rustenburg Temperature Yesterday

Maximum temperature yesterday: 86 °F (at 2:00 pm)
Minimum temperature yesterday: 55 °F (at 6:00 am)
Average temperature yesterday: 72 °F

High & Low Weather Summary for the Past Weeks

 TemperatureHumidityPressure
High86 °F (Jan 19, 2:00 pm)94% (Jan 7, 4:00 am)30.27 "Hg (Jan 7, 4:00 am)
Low54 °F (Jan 18, 4:00 am)15% (Jan 18, 4:00 pm)29.92 "Hg (Jan 14, 4:00 pm)
Average71 °F64%30.09 "Hg
* Reported Jan 5 2:00 am — Jan 20 2:00 am, Rustenburg, Weather by CustomWeather, © 2017

Note: Actual official high and low records may vary slightly from our data, if they occured in-between our weather recording intervals... More about our weather records

Advertising

Rustenburg Weather History for the Previous 24 Hours

Scroll right to see more
 ConditionsComfort  
Time TempWeatherWind HumidityBarometerVisibility
2:00 am
Fri, Jan 20
64 °FMild.3 mph64%30.04 "HgN/A
1:00 am68 °FMild.8 mph56%30.04 "HgN/A
12:00 am70 °FMild.8 mph50%30.04 "HgN/A
11:00 pm
Thu, Jan 19
70 °FMild.5 mph53%30.04 "HgN/A
10:00 pm70 °FClear.3 mph53%30.04 "Hg10 mi
9:00 pm73 °FClear.8 mph47%30.04 "Hg10 mi
8:00 pm77 °FClear.8 mph42%30.01 "Hg10 mi
7:00 pm82 °FSunny.6 mph32%30.01 "Hg10 mi
6:00 pm84 °FPassing clouds.7 mph29%30.01 "HgN/A
5:00 pm86 °FPassing clouds.7 mph27%30.01 "HgN/A
4:00 pm86 °FSunny.5 mph24%30.01 "Hg10 mi
3:00 pm86 °FSunny.6 mph29%30.04 "Hg10 mi
2:00 pm86 °FPassing clouds.9 mph27%30.07 "HgN/A
1:00 pm82 °FPassing clouds.12 mph28%30.09 "HgN/A
12:00 pm81 °FPassing clouds.8 mph37%30.09 "HgN/A
11:00 am79 °FPassing clouds.7 mph34%30.12 "HgN/A
10:00 am75 °FSunny.5 mph41%30.15 "Hg10 mi
9:20 am73 °FSunny.3 mph44%30.15 "Hg10 mi
8:53 am70 °FPassing clouds.5 mph46%30.15 "HgN/A
8:00 am64 °FSunny.2 mph56%30.18 "Hg10 mi
7:00 am61 °FSunny.No wind59%30.15 "Hg10 mi
6:00 am55 °FSunny.3 mph72%30.15 "Hg10 mi
5:00 am57 °FPassing clouds.3 mph67%30.15 "HgN/A
4:00 am57 °FCool.No wind67%30.12 "HgN/A
3:00 am57 °FCool.5 mph72%30.15 "HgN/A
Weather by CustomWeather, © 2017

See weather overviewHow to use our weather pages